Location: Tauranga
(37.6860°S, 176.1670°E)
Time: 03:06:32
(UTC+13:00)

Cosmos 2360 Rocket - Pass Details

Date: 24 January 2019
Orbit: 834 x 845 km, 71.0° (Epoch: 18 February)

Event Time Altitude Azimuth Distance (km) Brightness Sun altitude
Exits shadow 21:02:03 - 41° (NE) 2,935 4.4 -5.7°
Reaches altitude 10° 21:04:18 10° 58° (ENE) 2,474 3.9 -6.0°
Maximum altitude 21:06:40 13° 83° (E) 2,287 3.9 -6.4°
Drops below altitude 10° 21:09:03 10° 108° (ESE) 2,487 4.3 -6.9°
Sets 21:13:00 0° 135° (SE) 3,432 5.2 -7.5°
